Home   Weather   Houston   Past weeks
Flag for USA

Past Weather in Houston, Texas, USA — Yesterday and Last 2 Weeks

Now
67 °F

Passing clouds.


Feels Like: 67 °F
Forecast: 78 / 65 °F
Wind: 8 mph from Southeast

Location: Houston Hobby Airport

Current Time: Apr 22, 2019 at 1:18:50 am

Latest Report: Apr 21, 2019 at 11:53 pm


Visibility: 10 mi

Pressure: 30.08 "Hg

Humidity: 81%

Dew Point: 61 °F

Location of HoustonLocation

Past Weather in Houston — Graph

°F

Houston Temperature Yesterday

Maximum temperature yesterday: 80 °F (at 1:53 pm)
Minimum temperature yesterday: 58 °F (at 3:53 am)
Average temperature yesterday: 69 °F

High & Low Weather Summary for the Past Weeks

 TemperatureHumidityPressure
High89 °F (Apr 9, 4:53 pm)96% (Apr 18, 9:59 am)30.15 "Hg (Apr 18, 9:59 am)
Low49 °F (Apr 14, 2:53 am)25% (Apr 19, 4:53 pm)29.52 "Hg (Apr 13, 2:53 pm)
Average70 °F68%29.88 "Hg
* Reported Apr 6 11:53 pm — Apr 21 11:53 pm, Houston. Weather by CustomWeather, © 2019

Note: Actual official high and low records may vary slightly from our data, if they occured in-between our weather recording intervals... More about our weather records

Advertising

Houston Weather History for the Previous 24 Hours

Scroll right to see more
 ConditionsComfort  
Time TempWeatherWind HumidityBarometerVisibility
11:53 pm
Sun, Apr 21
67 °FPassing clouds.8 mph81%30.08 "Hg10 mi
10:53 pm67 °FPassing clouds.9 mph81%30.07 "Hg10 mi
9:53 pm68 °FPassing clouds.9 mph78%30.09 "Hg10 mi
8:53 pm70 °FPassing clouds.12 mph71%30.06 "Hg10 mi
7:53 pm71 °FPassing clouds.15 mph68%30.04 "Hg10 mi
6:53 pm74 °FScattered clouds.16 mph60%30.04 "Hg10 mi
5:53 pm76 °FScattered clouds.15 mph52%30.04 "Hg10 mi
4:53 pm78 °FPassing clouds.17 mph48%30.03 "Hg10 mi
3:53 pm79 °FPassing clouds.15 mph44%30.05 "Hg10 mi
2:53 pm79 °FPassing clouds.17 mph44%30.06 "Hg10 mi
1:53 pm80 °FPassing clouds.17 mph44%30.08 "Hg10 mi
12:53 pm79 °FPassing clouds.16 mph41%30.09 "Hg10 mi
11:53 am78 °FSunny.15 mph40%30.09 "Hg10 mi
10:53 am76 °FSunny.14 mph47%30.08 "Hg10 mi
9:53 am73 °FPassing clouds.15 mph55%30.07 "Hg10 mi
8:53 am69 °FPassing clouds.12 mph70%30.06 "Hg10 mi
7:53 am63 °FPassing clouds.8 mph84%30.04 "Hg10 mi
6:53 am58 °FPassing clouds.7 mph90%30.03 "Hg10 mi
5:53 am58 °FClear.No wind87%30.01 "Hg10 mi
4:53 am58 °FClear.5 mph84%30.01 "Hg10 mi
3:53 am58 °FClear.3 mph81%30.01 "Hg10 mi
2:53 am59 °FClear.6 mph81%30.01 "Hg10 mi
1:53 am60 °FClear.6 mph75%30.03 "Hg10 mi
Weather by CustomWeather, © 2019

See weather overview